Location: Unspecified
(0.0000°N, 0.0000°E)
Time: 06:27:11
(UTC+01:00)

Atlas Centaur 2 - Visible Passes

Search period start: 26 February 2017 00:00
Search period end: 08 March 2017 00:00
Orbit: 459 x 1314 km, 30.4° (Epoch: 25 February)

Date Brightness Start Highest point End Pass type
(mag) Time Alt. Az. Time Alt. Az. Time Alt. Az.
26 Feb 2.0 05:39:21 39° NNE 05:39:31 40° NNE 05:43:19 10° ESE visible
26 Feb 4.7 20:19:00 10° WNW 20:24:13 19° NNW 20:28:52 10° N visible
27 Feb 1.5 05:36:51 60° ENE 05:36:51 60° ENE 05:40:22 10° ESE visible
27 Feb 4.8 20:16:51 10° WNW 20:21:06 15° NNW 20:25:00 10° N visible
28 Feb 1.8 05:34:21 47° SE 05:34:21 47° SE 05:37:16 10° SE visible
28 Feb 5.0 20:15:10 10° NW 20:18:02 12° NNW 20:20:45 10° N visible
01 Mar 2.6 05:31:49 29° SSE 05:31:49 29° SSE 05:34:02 10° SE visible
02 Mar 3.3 05:29:16 18° SSE 05:29:16 18° SSE 05:30:36 10° SSE visible
03 Mar 3.8 05:26:41 11° SSE 05:26:41 11° SSE 05:26:56 10° SSE visible
